Wind_Speed
69 69 69 69 70 71 71 72 73 74 73 74 73 72 71 70 70 72 70 70 75 77 80 82 83 86 86 87 87 82 81 85 87 91 94 91 93 88 91 92 87 86 85 85 83 83 81 76 71 73 65 60 56 54
66 67 68 69 71 72 73 73 72 71 68 67 66 65 64 63 62 61 63 59 58 66 72 68 73 74 68 62 70 63 70 71 70 79 86 87 78 81 81 91 92 87 84 85 87 88 84 80 74 75 74 71 64 63
68 68 68 68 68 67 67 65 64 61 59 57 56 54 53 49 47 47 45 44 47 50 55 57 54 47 55 50 50 61 57 51 51 55 64 70 70 75 74 78 86 84 86 91 94 90 90 89 86 82 80 79 73 68
65 64 63 62 61 58 55 56 53 50 47 43 40 38 37 32 29 29 32 34 38 43 48 44 44 44 41 44 46 50 45 46 47 52 54 59 66 68 80 82 72 75 69 67 84 92 97 91 92 92 88 84 81 76
56 54 51 50 49 49 48 47 45 42 37 28 26 26 25 29 31 32 33 35 37 37 42 40 39 37 40 44 45 46 49 44 48 51 57 59 61 72 71 78 87 83 85 86 89 86 90 96 94 91 91 88 88 86
45 45 45 45 45 44 42 41 38 33 28 28 29 30 30 29 28 28 28 28 29 32 35 35 28 27 34 39 42 44 44 47 49 50 51 56 57 59 77 82 78 70 76 75 79 76 78 87 99 97 94 92 89 88
44 43 41 38 37 35 33 33 30 29 29 28 28 26 27 26 26 27 26 25 26 29 32 33 30 24 26 31 34 36 36 37 42 46 49 47 48 53 61 75 80 76 68 69 72 70 74 76 83 84 88 90 94 94
44 41 38 35 32 31 30 30 28 28 29 28 26 26 25 25 25 22 22 23 24 26 25 29 25 18 18 25 29 32 33 38 38 39 39 41 42 49 56 54 67 81 82 84 82 69 72 74 78 80 82 82 83 86
42 40 38 35 32 30 28 28 28 28 26 25 25 25 25 24 22 24 24 24 25 26 27 33 26 23 17 17 26 31 31 34 37 38 40 47 45 48 39 33 36 41 64 84 85 87 79 79 82 76 71 80 77 71
42 40 37 34 31 27 27 28 27 25 26 27 26 26 24 26 27 25 26 26 28 29 31 29 27 30 29 30 28 26 29 32 34 31 32 41 39 30 26 20 26 33 38 38 62 88 94 87 84 75 71 74 72 66
38 35 33 31 30 27 29 26 25 25 26 24 24 24 25 24 28 28 27 26 26 27 25 20 21 25 27 26 28 31 33 38 42 35 40 47 44 31 25 31 30 32 29 34 38 55 76 91 88 75 73 70 68 71
28 27 28 30 27 28 28 23 26 27 25 26 25 26 24 23 22 26 28 29 27 25 19 18 21 23 26 27 31 33 35 40 39 38 44 47 38 33 30 34 39 39 38 35 35 36 41 72 95 88 89 83 80 78
23 23 26 27 26 27 26 25 27 25 26 25 24 22 23 26 27 26 28 25 18 15 20 22 21 22 19 24 30 33 35 35 32 29 34 35 33 31 32 27 26 33 37 35 39 36 37 37 37 53 82 95 94 94
18 23 25 25 26 24 25 28 27 25 23 21 20 19 22 22 17 13 13 19 20 22 24 24 27 25 19 21 23 32 29 26 27 22 23 30 14 19 21 26 34 36 33 30 24 32 32 35 36 41 46 46 59 71
20 21 23 26 23 21 26 28 24 24 25 24 26 26 21 14 8 9 13 15 16 20 24 27 29 29 28 31 25 25 21 23 26 27 22 22 16 17 23 25 28 26 31 25 25 28 21 26 25 24 27 31 36 44
20 21 24 24 19 22 29 28 26 26 27 29 27 22 14 14 11 7 11 17 21 21 23 27 31 33 31 30 29 23 24 23 29 29 28 20 17 18 21 23 26 25 24 25 23 31 31 30 26 29 26 25 26 28
20 22 23 21 21 24 27 29 27 26 29 29 22 20 16 17 22 18 14 16 21 23 25 28 30 30 30 30 25 22 26 32 35 35 29 24 19 21 26 25 25 24 28 29 29 28 26 26 26 26 25 24 22 27
18 22 20 20 21 22 22 24 26 26 25 23 19 16 20 20 14 11 14 19 21 23 25 28 28 28 30 24 21 25 28 28 34 32 20 19 23 26 25 22 23 24 24 26 30 30 31 34 36 36 31 29 30 28
19 19 18 17 18 19 20 21 21 21 19 20 17 15 15 15 16 18 19 23 25 26 27 27 30 23 23 24 26 24 23 21 18 13 17 23 24 26 25 23 11 13 19 26 22 18 16 20 23 27 32 30 28 25
19 18 16 15 15 17 18 19 19 19 18 16 14 13 14 15 17 16 18 19 20 26 27 28 28 30 29 22 12 7 8 10 7 10 13 20 21 19 21 14 12 12 17 24 17 13 15 16 16 17 14 15 21 15
19 16 15 15 17 19 18 16 16 15 11 13 16 14 8 7 9 11 14 18 23 26 25 23 20 10 3 1 1 4 6 9 8 9 12 14 18 18 14 13 13 12 14 15 19 24 22 16 13 10 17 16 18 16
19 17 17 16 17 17 15 15 15 15 9 5 2 1 2 3 5 6 5 4 4 6 3 9 10 10 6 3 4 7 6 5 8 8 8 10 11 13 15 15 16 17 17 17 18 18 19 23 24 22 15 7 4 15
22 19 18 16 20 22 20 20 16 11 5 8 8 7 8 10 10 9 7 5 6 6 6 6 7 9 8 6 3 1 3 7 6 5 5 7 9 11 13 15 16 17 17 18 18 18 19 20 19 18 18 18 17 15
22 19 19 20 21 20 15 11 11 9 7 13 13 10 9 10 10 9 9 10 9 10 11 10 11 9 8 7 5 2 3 5 6 6 6 8 10 12 13 14 16 18 19 18 17 16 15 14 15 16 15 14 13 13
22 15 15 14 13 15 14 13 13 17 18 17 16 9 10 12 12 13 12 10 9 8 8 9 9 9 9 7 6 7 8 7 6 7 9 11 10 11 13 12 13 15 16 15 15 15 15 14 12 10 10 10 10 9
17 13 14 15 14 15 15 18 17 16 17 21 23 21 18 16 14 13 13 12 12 12 11 10 10 9 9 11 14 15 15 15 14 14 15 13 13 13 14 15 16 15 14 14 16 17 19 19 19 19 19 18 17 16
15 15 15 16 17 20 22 23 23 22 22 21 18 15 11 9 8 7 6 5 6 8 10 12 15 19 14 15 17 19 20 20 20 20 20 19 17 17 17 17 17 18 19 20 20 20 22 24 25 24 23 23 22 22
19 19 20 24 25 26 27 23 20 18 16 13 10 7 4 3 3 4 6 9 13 15 17 21 20 24 28 19 20 19 21 22 20 21 21 21 19 17 17 17 17 18 19 20 22 24 25 28 29 28 28 28 29 30
25 26 24 24 25 24 21 17 13 9 6 3 2 1 4 7 10 13 16 17 19 23 25 27 29 31 31 24 21 23 27 21 22 22 22 22 19 16 16 18 18 19 21 22 24 25 26 28 31 33 35 36 36 34
22 22 21 19 17 15 12 10 7 6 5 6 8 9 12 14 16 20 23 25 26 29 30 33 31 29 27 23 21 15 16 15 15 13 12 13 13 15 16 17 19 22 24 25 26 29 32 33 34 34 34 35 35 36
21 18 15 13 12 11 11 11 12 13 13 13 15 16 18 21 24 26 27 28 28 28 29 28 26 24 23 22 20 19 19 15 14 15 16 17 18 19 20 20 20 22 24 25 27 29 31 32 32 33 34 35 37 38
22 20 17 15 14 14 14 14 15 15 18 21 23 24 25 26 27 27 26 25 25 25 24 21 18 18 17 16 15 16 17 17 18 17 16 17 19 20 21 22 24 27 30 31 31 31 31 32 33 34 36 37 39 41
20 19 17 15 15 16 17 19 22 23 24 25 26 27 29 30 29 28 27 26 27 24 20 20 21 22 21 19 19 19 18 19 20 20 22 23 24 25 27 28 30 30 30 31 31 30 30 31 32 33 35 37 39 41
Wind_Direction
274 274 273 273 274 275 276 276 276 276 275 275 275 275 275 276 276 275 275 271 271 270 271 270 268 269 267 267 266 263 258 256 254 253 253 252 253 251 250 252 248 245 245 247 249 247 248 248 246 249 255 259 255 255
275 275 275 275 275 274 274 273 272 272 273 273 273 273 273 272 271 270 269 267 264 265 269 264 264 266 265 265 267 265 263 259 253 251 249 250 249 249 250 247 246 246 245 246 247 247 247 250 247 250 252 254 258 255
274 273 274 273 273 272 271 271 271 270 270 270 270 269 268 268 268 267 265 260 256 258 259 261 267 259 258 261 258 260 261 263 257 253 247 245 244 237 238 242 242 241 245 244 241 239 242 243 245 245 247 248 247 251
274 274 274 274 273 272 270 269 267 267 266 265 264 265 266 264 257 253 254 250 251 258 260 261 257 255 255 256 260 262 261 253 253 250 250 245 239 238 238 239 237 232 227 237 242 238 239 241 244 244 244 244 245 246
274 275 275 273 272 271 269 266 263 262 259 254 252 252 250 249 248 251 255 255 255 259 267 268 265 262 258 258 258 258 256 256 254 251 253 253 247 239 236 236 236 233 239 239 244 244 241 239 240 243 244 242 245 246
273 275 274 272 270 269 266 261 255 248 238 238 245 245 248 254 256 255 253 254 257 261 269 270 267 260 256 258 258 257 255 254 254 255 256 257 258 256 250 244 234 231 233 239 245 247 248 243 240 243 244 245 242 242
276 276 276 275 273 268 263 250 243 234 238 245 248 252 252 252 253 256 254 249 251 257 262 268 266 262 253 258 261 255 245 254 256 257 257 262 260 261 260 259 238 239 235 238 238 233 233 241 246 244 249 249 248 245
274 276 272 269 265 264 258 242 234 233 241 245 249 250 250 249 252 254 252 246 245 251 260 264 270 263 258 251 251 251 253 252 258 263 263 265 260 259 260 265 254 243 238 236 230 228 238 242 250 250 247 252 253 250
271 269 265 262 259 260 252 232 230 237 241 244 247 247 248 245 245 243 241 242 243 242 245 262 258 270 259 261 275 256 259 260 257 260 265 265 264 264 287 282 269 263 248 242 244 237 241 244 251 249 244 242 247 247
270 266 258 253 248 249 234 228 233 238 237 238 242 244 244 245 245 245 242 243 245 246 248 252 256 262 273 276 279 265 269 276 281 270 278 270 267 271 278 281 294 283 274 260 253 250 246 239 237 234 239 239 241 240
267 257 245 239 235 234 224 230 232 228 232 240 242 244 246 245 245 242 241 241 245 251 255 263 263 262 265 267 268 268 273 280 281 275 276 269 266 278 281 280 283 285 285 291 282 265 258 244 235 239 233 229 230 233
258 237 230 225 225 220 219 228 218 224 230 236 241 245 245 242 239 241 239 240 246 252 257 259 257 257 257 261 263 265 269 273 281 279 275 269 273 278 274 277 271 272 275 282 273 271 270 264 247 243 243 239 245 248
239 221 216 216 215 211 218 224 216 223 232 237 239 242 242 238 241 245 248 243 248 254 250 254 252 254 257 265 266 266 266 277 287 279 282 289 288 284 283 282 271 269 276 280 280 277 273 276 264 252 251 249 250 250
217 209 210 210 203 210 217 216 215 223 229 232 235 243 250 250 261 287 276 244 250 252 254 253 255 264 258 255 278 275 274 285 289 292 316 311 288 264 265 270 266 264 276 296 283 284 282 280 277 268 265 260 253 247
211 213 208 198 204 213 207 208 210 216 222 225 229 231 246 250 263 265 238 234 246 254 257 259 259 262 262 261 263 293 276 290 290 294 305 314 303 280 273 264 270 288 291 302 259 265 281 278 275 285 265 260 265 260
218 206 197 200 212 207 205 209 216 224 229 231 234 247 246 221 242 265 242 238 243 248 257 258 262 260 261 260 271 277 272 282 289 291 309 300 280 281 285 289 289 280 279 280 274 268 260 255 264 276 265 269 267 267
196 190 200 211 209 202 207 214 220 227 234 235 236 243 244 239 265 266 241 238 245 250 255 257 260 259 255 258 265 274 278 282 283 279 293 288 309 304 307 306 284 279 282 287 280 275 275 269 264 262 258 264 267 262
189 205 209 209 212 211 214 225 226 229 238 241 237 236 243 261 257 247 247 242 243 251 251 254 255 247 255 264 272 275 282 284 280 294 306 318 317 327 319 295 289 284 288 290 285 276 264 265 268 270 265 267 269 274
195 200 199 201 206 208 213 220 225 229 236 242 253 262 257 253 249 245 250 244 246 250 254 254 252 248 257 268 278 283 275 286 312 305 331 337 327 329 328 330 348 334 341 326 312 300 292 277 275 273 263 261 264 268
190 187 184 190 202 211 217 221 231 234 237 245 250 250 240 233 236 248 249 253 259 258 260 261 262 268 272 277 277 288 307 338 315 317 325 324 327 325 321 338 345 343 360 8 1 330 324 312 307 300 277 259 239 250
186 185 192 203 212 224 229 228 231 236 222 208 207 207 224 244 248 249 250 256 260 272 277 280 284 297 162 175 124 50 34 11 351 322 315 312 315 314 321 333 340 2 16 6 22 41 39 17 341 304 253 258 243 228
189 194 191 196 201 216 202 199 194 193 160 90 111 325 262 250 239 230 234 282 295 220 115 83 73 75 94 95 38 47 27 10 324 311 307 309 315 326 334 340 343 351 357 0 12 23 36 45 39 40 43 22 307 221
176 176 184 183 180 177 176 177 170 161 141 127 103 112 119 120 115 112 107 93 83 85 94 67 54 46 56 79 92 83 300 274 250 266 305 325 324 322 327 331 337 346 351 358 5 12 14 24 32 32 32 31 31 27
174 176 168 157 154 151 136 135 147 152 154 126 106 87 90 107 115 111 103 92 78 63 53 46 45 50 56 71 78 19 315 315 316 323 327 329 332 333 337 342 346 348 351 354 357 3 7 11 7 4 360 355 358 357
151 165 172 157 154 156 160 167 174 158 150 146 117 126 117 101 92 85 79 70 63 53 39 27 19 11 1 347 319 301 300 307 305 321 328 332 331 330 328 331 335 337 340 345 354 358 360 360 359 352 342 333 322 314
162 167 160 153 156 160 160 158 153 153 143 125 118 115 104 94 84 76 63 54 42 24 8 354 340 328 316 306 298 292 295 297 295 296 301 301 302 309 311 306 309 315 319 322 326 330 335 337 337 335 334 332 329 328
150 146 151 160 158 153 149 140 135 132 128 121 112 101 87 69 51 37 6 338 327 324 327 333 354 352 313 280 283 274 274 279 279 282 284 283 283 287 293 297 301 304 307 309 312 313 317 320 319 317 318 318 315 314
151 159 155 153 150 145 138 134 136 133 127 123 120 107 89 52 9 333 315 307 310 313 323 328 325 326 328 310 264 267 270 265 261 269 271 272 282 292 297 297 296 297 296 298 301 304 309 311 311 309 307 305 303 303
144 147 148 146 147 150 154 153 149 146 144 142 157 312 324 320 311 313 316 314 314 318 320 324 321 318 311 300 291 277 260 272 271 268 267 265 269 275 277 282 288 295 298 303 306 304 303 303 304 305 305 304 302 302
143 146 149 156 167 175 179 185 192 211 239 263 280 294 300 309 311 308 307 308 308 309 310 316 308 299 295 294 298 304 299 289 275 264 265 273 279 281 283 285 290 292 293 294 296 297 297 298 299 299 300 300 300 300
169 175 181 186 193 204 218 232 242 252 265 280 288 292 295 298 299 303 305 304 305 311 315 308 300 298 298 298 297 290 289 288 286 284 286 291 293 296 300 302 303 302 302 302 302 302 302 301 301 301 302 303 304 304
196 200 207 215 224 236 246 255 266 278 285 288 290 291 293 297 301 303 302 300 300 301 297 294 294 297 298 294 289 289 287 281 289 296 292 290 291 291 293 297 301 303 304 304 302 301 301 302 303 303 303 304 304 304
215 220 224 231 244 255 264 273 278 280 282 285 290 296 299 299 296 289 286 283 285 283 280 279 284 287 286 285 287 285 280 284 286 284 285 289 292 298 301 303 304 304 303 303 304 305 305 306 306 307 309 309 309 309
Height
5587 5586 5586 5585 5585 5585 5583 5583 5582 5582 5582 5582 5581 5581 5581 5579 5576 5572 5578 5576 5576 5576 5591 5590 5593 5597 5601 5600 5597 5604 5605 5616 5617 5620 5624 5630 5633 5638 5643 5655 5660 5668 5671 5677 5684 5683 5690 5706 5714 5714 5721 5721 5726 5727
5566 5565 5564 5563 5562 5561 5561 5559 5558 5558 5557 5556 5555 5555 5555 5554 5553 5550 5555 5554 5552 5550 5561 5561 5570 5579 5572 5574 5572 5575 5580 5587 5590 5592 5597 5600 5607 5608 5614 5622 5633 5635 5648 5652 5656 5668 5677 5680 5691 5691 5693 5697 5704 5707
5544 5542 5541 5540 5539 5538 5538 5537 5536 5535 5535 5534 5534 5534 5534 5535 5534 5533 5535 5537 5535 5533 5537 5542 5558 5557 5554 5561 5557 5552 5561 5570 5571 5574 5572 5575 5579 5587 5589 5592 5604 5609 5617 5620 5626 5646 5649 5655 5659 5661 5668 5674 5682 5689
5522 5521 5521 5520 5519 5518 5518 5517 5517 5517 5518 5518 5519 5518 5520 5522 5522 5522 5523 5525 5525 5525 5523 5537 5538 5542 5546 5545 5544 5542 5551 5550 5554 5554 5553 5554 5558 5563 5569 5573 5576 5589 5592 5594 5594 5620 5624 5633 5637 5637 5645 5652 5662 5672
5505 5504 5504 5503 5502 5502 5502 5501 5502 5503 5505 5507 5509 5510 5512 5513 5514 5514 5514 5517 5518 5518 5515 5523 5526 5534 5533 5531 5535 5533 5535 5541 5541 5539 5537 5538 5541 5545 5547 5547 5546 5574 5575 5570 5573 5595 5597 5610 5613 5614 5621 5632 5640 5646
5491 5490 5489 5488 5488 5487 5487 5488 5489 5492 5495 5498 5499 5501 5502 5503 5505 5505 5507 5510 5510 5510 5508 5510 5519 5522 5520 5519 5521 5521 5524 5526 5525 5526 5527 5526 5534 5530 5526 5522 5535 5549 5549 5552 5556 5571 5570 5582 5592 5597 5603 5608 5613 5621
5477 5476 5475 5474 5474 5475 5475 5477 5480 5483 5486 5488 5490 5492 5493 5496 5497 5498 5501 5503 5502 5502 5502 5502 5506 5511 5511 5511 5512 5513 5514 5515 5514 5515 5514 5519 5523 5517 5510 5504 5524 5526 5532 5539 5544 5552 5546 5558 5567 5578 5578 5582 5590 5599
5462 5462 5462 5463 5464 5465 5466 5467 5471 5475 5478 5480 5482 5484 5486 5488 5490 5493 5492 5494 5495 5496 5496 5495 5498 5502 5505 5504 5504 5502 5503 5502 5504 5504 5505 5504 5506 5500 5491 5504 5512 5517 5522 5520 5526 5535 5534 5540 5540 5548 5556 5560 5563 5574
5447 5448 5450 5451 5453 5455 5456 5459 5463 5467 5470 5473 5475 5476 5478 5481 5483 5483 5485 5487 5487 5490 5489 5489 5494 5495 5495 5496 5496 5495 5494 5493 5493 5492 5493 5490 5491 5486 5496 5497 5496 5498 5499 5502 5505 5507 5509 5508 5518 5526 5532 5538 5542 5551
5431 5433 5436 5439 5443 5445 5448 5452 5456 5460 5463 5464 5467 5469 5472 5473 5474 5477 5478 5479 5479 5481 5482 5486 5490 5490 5489 5488 5488 5487 5484 5483 5482 5487 5483 5477 5477 5482 5485 5487 5485 5484 5482 5481 5478 5481 5486 5488 5493 5503 5509 5515 5523 5529
5415 5418 5422 5427 5432 5436 5441 5445 5450 5453 5454 5458 5460 5462 5463 5465 5466 5468 5469 5472 5473 5474 5478 5482 5482 5481 5481 5481 5480 5477 5476 5475 5474 5480 5473 5465 5469 5479 5482 5479 5479 5477 5473 5471 5466 5466 5469 5471 5479 5486 5495 5497 5501 5508
5403 5406 5412 5418 5423 5428 5434 5438 5441 5445 5448 5450 5454 5454 5456 5458 5459 5460 5461 5464 5467 5470 5474 5473 5473 5473 5473 5472 5470 5470 5468 5464 5464 5467 5462 5456 5470 5473 5471 5471 5470 5464 5462 5462 5461 5458 5458 5460 5464 5469 5473 5477 5481 5488
5395 5399 5405 5410 5416 5421 5427 5431 5435 5438 5442 5444 5445 5447 5449 5451 5451 5454 5455 5459 5463 5465 5466 5466 5467 5466 5467 5466 5463 5462 5459 5457 5457 5455 5454 5459 5459 5459 5460 5458 5456 5453 5450 5448 5448 5446 5445 5445 5446 5445 5448 5453 5459 5464
5391 5395 5400 5405 5411 5416 5420 5424 5428 5432 5435 5438 5440 5440 5442 5445 5450 5452 5452 5456 5458 5459 5459 5459 5459 5459 5459 5457 5457 5454 5454 5452 5450 5450 5450 5448 5448 5447 5447 5445 5444 5442 5439 5437 5434 5434 5433 5429 5429 5429 5428 5432 5432 5436
5388 5392 5396 5401 5407 5411 5415 5419 5423 5426 5429 5431 5432 5434 5439 5443 5444 5445 5446 5448 5451 5451 5451 5451 5451 5451 5452 5450 5450 5449 5447 5445 5444 5445 5443 5440 5439 5438 5437 5435 5433 5430 5428 5425 5424 5423 5420 5419 5417 5417 5417 5415 5417 5421
5384 5388 5394 5399 5403 5407 5410 5414 5417 5420 5422 5423 5427 5432 5436 5438 5440 5439 5440 5442 5442 5443 5444 5444 5443 5442 5444 5443 5445 5443 5443 5442 5438 5437 5435 5434 5433 5430 5428 5425 5423 5420 5418 5417 5416 5414 5412 5411 5411 5409 5408 5408 5408 5409
5382 5387 5390 5395 5398 5402 5405 5409 5411 5414 5414 5417 5425 5428 5431 5433 5434 5434 5433 5434 5435 5436 5436 5435 5435 5436 5437 5436 5439 5440 5439 5436 5434 5432 5429 5425 5424 5423 5420 5417 5413 5411 5408 5407 5406 5404 5402 5401 5401 5401 5400 5399 5400 5401
5381 5383 5387 5391 5394 5398 5401 5404 5406 5408 5411 5415 5420 5424 5425 5427 5428 5428 5427 5426 5428 5429 5429 5428 5428 5429 5429 5433 5435 5434 5432 5430 5427 5424 5424 5422 5419 5415 5411 5407 5404 5402 5400 5397 5393 5391 5390 5388 5387 5388 5389 5390 5391 5392
5377 5381 5385 5389 5392 5395 5398 5400 5403 5406 5409 5412 5416 5418 5419 5421 5421 5421 5421 5420 5420 5421 5422 5423 5421 5422 5425 5426 5426 5425 5424 5423 5422 5420 5418 5416 5413 5409 5405 5402 5397 5396 5392 5388 5382 5380 5378 5377 5376 5375 5375 5378 5380 5382
5375 5379 5383 5386 5390 5392 5395 5398 5400 5403 5406 5409 5411 5413 5413 5414 5414 5415 5415 5415 5416 5415 5416 5415 5417 5417 5418 5419 5419 5419 5419 5417 5416 5416 5415 5413 5410 5407 5404 5400 5397 5394 5389 5383 5378 5376 5374 5373 5372 5371 5371 5372 5374 5375
5374 5378 5381 5384 5388 5391 5393 5395 5397 5400 5403 5404 5406 5406 5407 5409 5409 5410 5410 5410 5410 5409 5409 5410 5411 5411 5413 5415 5416 5416 5415 5414 5414 5414 5413 5411 5408 5406 5402 5398 5395 5393 5389 5386 5383 5377 5373 5369 5366 5364 5367 5369 5371 5372
5372 5376 5379 5382 5385 5388 5390 5392 5395 5398 5401 5403 5404 5404 5405 5405 5405 5406 5407 5407 5407 5407 5409 5410 5411 5412 5413 5413 5413 5412 5413 5413 5413 5412 5411 5408 5406 5403 5400 5397 5394 5391 5388 5386 5383 5379 5376 5372 5370 5368 5367 5366 5367 5368
5371 5375 5378 5380 5383 5386 5390 5391 5394 5398 5400 5402 5403 5404 5404 5404 5405 5406 5406 5407 5408 5409 5410 5410 5410 5409 5410 5411 5411 5411 5412 5411 5411 5410 5408 5407 5405 5403 5400 5398 5395 5392 5390 5387 5383 5381 5379 5376 5375 5373 5371 5370 5369 5369
5371 5375 5378 5380 5383 5387 5390 5393 5395 5398 5399 5400 5401 5402 5404 5406 5407 5407 5407 5407 5408 5408 5408 5409 5410 5410 5411 5411 5411 5412 5412 5411 5410 5409 5408 5406 5404 5402 5399 5397 5395 5392 5390 5388 5386 5384 5381 5380 5378 5376 5375 5375 5373 5372
5373 5377 5380 5382 5385 5388 5391 5393 5395 5397 5399 5400 5399 5403 5405 5405 5406 5407 5408 5409 5409 5409 5410 5410 5410 5410 5410 5410 5411 5411 5411 5410 5409 5408 5406 5405 5403 5401 5399 5397 5395 5393 5391 5389 5387 5385 5383 5381 5379 5378 5378 5376 5375 5374
5373 5377 5381 5383 5386 5389 5390 5393 5395 5398 5399 5400 5401 5405 5407 5408 5409 5409 5409 5410 5410 5410 5410 5410 5410 5409 5409 5409 5408 5408 5407 5406 5405 5404 5402 5401 5400 5399 5398 5396 5394 5393 5391 5388 5386 5384 5382 5381 5379 5377 5375 5374 5373 5372
5375 5379 5381 5383 5386 5389 5393 5395 5397 5400 5402 5403 5405 5406 5408 5409 5410 5410 5411 5411 5411 5410 5410 5409 5408 5408 5407 5406 5404 5403 5402 5400 5399 5399 5397 5396 5395 5394 5393 5393 5391 5389 5388 5386 5384 5383 5381 5378 5376 5374 5372 5371 5369 5368
5376 5379 5382 5385 5388 5391 5394 5398 5401 5402 5404 5405 5407 5408 5409 5410 5411 5411 5410 5410 5408 5407 5406 5404 5403 5402 5400 5399 5398 5397 5396 5394 5393 5392 5390 5389 5388 5387 5387 5386 5385 5384 5383 5381 5379 5378 5376 5375 5373 5370 5368 5366 5363 5361
5378 5382 5385 5388 5391 5394 5397 5399 5401 5403 5404 5405 5406 5406 5407 5407 5407 5406 5405 5404 5402 5400 5398 5398 5396 5394 5392 5390 5389 5387 5386 5385 5385 5384 5383 5382 5381 5380 5380 5379 5378 5377 5375 5374 5372 5370 5368 5366 5364 5361 5359 5356 5354 5351
5383 5386 5389 5392 5395 5397 5399 5400 5402 5403 5404 5404 5404 5404 5403 5403 5402 5401 5400 5398 5397 5396 5394 5393 5390 5387 5385 5383 5382 5381 5380 5379 5378 5378 5377 5376 5375 5373 5372 5372 5371 5370 5368 5366 5365 5363 5360 5357 5354 5352 5349 5347 5344 5341
5386 5389 5391 5393 5395 5396 5398 5399 5400 5400 5400 5400 5400 5400 5399 5398 5397 5396 5394 5393 5391 5389 5387 5385 5382 5380 5379 5377 5377 5376 5376 5375 5374 5373 5372 5371 5370 5368 5367 5365 5364 5362 5361 5359 5357 5355 5352 5349 5346 5342 5339 5336 5333 5329
5386 5388 5390 5391 5392 5394 5395 5396 5396 5395 5395 5395 5394 5394 5393 5391 5390 5388 5386 5385 5383 5381 5379 5378 5376 5375 5374 5372 5371 5370 5370 5369 5368 5367 5365 5364 5363 5362 5360 5358 5356 5354 5353 5350 5348 5345 5341 5338 5335 5332 5328 5325 5321 5318
5384 5385 5386 5387 5388 5389 5390 5391 5390 5390 5390 5389 5388 5386 5385 5383 5381 5380 5378 5376 5375 5373 5372 5371 5371 5369 5368 5367 5366 5365 5364 5363 5362 5361 5359 5358 5356 5354 5352 5350 5348 5345 5343 5340 5337 5333 5330 5327 5324 5321 5318 5314 5310 5306